VLG2CM GCLP-LEST

Flight info

Callsign VLG2CM
Flight time 2h 41m
Altitude 36000
Route VASTO DCT NIDEB DCT TIGGI DCT ORSOS DCT TERVA DCT ASMOV DCT AGADO
Aircraft A320/M-SDE3FGHIRWY/LB1

Departure

Time 2026-04-26 13:36
Airport Gran Canaria Airport (GCLP)

Arrival

Time 2026-04-26 16:17
Airport Santiago-Rosalía de Castro Airport (LEST)
Time Latitude Longitude Altitude Speed Heading
2026-04-26 13:15 27.93900 -15.38800 79 ft 0 kts 288°
2026-04-26 13:26 27.93895 -15.38782 51 ft 2 kts 285°
2026-04-26 13:26 27.93891 -15.38764 50 ft 2 kts 292°
2026-04-26 13:27 27.93885 -15.38747 49 ft 2 kts 284°
2026-04-26 13:27 27.93882 -15.38728 46 ft 2 kts 268°
2026-04-26 13:27 27.93885 -15.38710 47 ft 2 kts 226°
2026-04-26 13:27 27.93889 -15.38706 48 ft 0 kts 210°
2026-04-26 13:30 27.93888 -15.38706 48 ft 0 kts 204°
2026-04-26 13:30 27.93863 -15.38717 47 ft 7 kts 201°
2026-04-26 13:30 27.93789 -15.38749 51 ft 13 kts 201°
2026-04-26 13:30 27.93701 -15.38788 53 ft 14 kts 200°
2026-04-26 13:31 27.93609 -15.38827 54 ft 14 kts 201°
2026-04-26 13:31 27.93512 -15.38864 54 ft 16 kts 191°
2026-04-26 13:31 27.93434 -15.38798 52 ft 16 kts 110°
2026-04-26 13:31 27.93363 -15.38772 56 ft 12 kts 201°
2026-04-26 13:32 27.93277 -15.38812 59 ft 15 kts 202°
2026-04-26 13:32 27.93172 -15.38862 62 ft 18 kts 205°
2026-04-26 13:32 27.93050 -15.38918 64 ft 20 kts 200°
2026-04-26 13:32 27.92910 -15.38979 63 ft 23 kts 202°
2026-04-26 13:33 27.92756 -15.39050 64 ft 25 kts 201°
2026-04-26 13:33 27.92588 -15.39124 68 ft 27 kts 201°
2026-04-26 13:33 27.92407 -15.39203 70 ft 29 kts 201°
2026-04-26 13:33 27.92208 -15.39289 84 ft 32 kts 201°
2026-04-26 13:34 27.92029 -15.39297 82 ft 18 kts 180°
2026-04-26 13:34 27.92021 -15.39297 82 ft 0 kts 180°
2026-04-26 13:34 27.92020 -15.39297 82 ft 1 kts 180°
2026-04-26 13:35 27.91964 -15.39297 86 ft 14 kts 175°
2026-04-26 13:35 27.91942 -15.39221 85 ft 13 kts 44°
2026-04-26 13:35 27.92042 -15.39164 82 ft 32 kts 21°
2026-04-26 13:35 27.92452 -15.38982 71 ft 92 kts 21°
2026-04-26 13:36 27.92568 -15.38932 72 ft 102 kts 20°
2026-04-26 13:36 27.93386 -15.38572 94 ft 144 kts 21°
2026-04-26 13:36 27.94382 -15.38122 490 ft 156 kts 22°
2026-04-26 13:36 27.95388 -15.37660 1144 ft 156 kts 19°
2026-04-26 13:37 27.96413 -15.37214 1674 ft 161 kts 18°
2026-04-26 13:37 27.97500 -15.36750 2076 ft 174 kts 19°
2026-04-26 13:37 27.98682 -15.36246 2429 ft 190 kts 19°
2026-04-26 13:37 27.99967 -15.35698 2789 ft 206 kts 19°
2026-04-26 13:38 28.01366 -15.35104 3176 ft 223 kts 19°
2026-04-26 13:38 28.02854 -15.34472 3725 ft 236 kts 19°
2026-04-26 13:38 28.04456 -15.33790 3950 ft 252 kts 19°
2026-04-26 13:38 28.06092 -15.33083 3982 ft 251 kts 20°
2026-04-26 13:39 28.07725 -15.32369 3984 ft 252 kts 19°
2026-04-26 13:39 28.09360 -15.31653 3990 ft 251 kts 20°
2026-04-26 13:39 28.10984 -15.30941 3990 ft 253 kts 20°
2026-04-26 13:39 28.12634 -15.30217 3991 ft 252 kts 19°
2026-04-26 13:40 28.14272 -15.29513 3994 ft 251 kts 16°
2026-04-26 13:40 28.15951 -15.28999 4334 ft 250 kts 13°
2026-04-26 13:40 28.17659 -15.28516 5145 ft 255 kts 13°
2026-04-26 13:40 28.19398 -15.28030 5955 ft 260 kts 14°
2026-04-26 13:41 28.21173 -15.27528 6731 ft 265 kts 14°
2026-04-26 13:41 28.22984 -15.27013 7453 ft 271 kts 14°
2026-04-26 13:41 28.24832 -15.26485 8176 ft 276 kts 14°
2026-04-26 13:41 28.26715 -15.25948 8900 ft 282 kts 14°
2026-04-26 13:42 28.28635 -15.25404 9613 ft 287 kts 14°
2026-04-26 13:42 28.30589 -15.24850 10275 ft 292 kts 14°
2026-04-26 13:42 28.32584 -15.24158 10663 ft 308 kts 22°
2026-04-26 13:42 28.34521 -15.22988 10990 ft 324 kts 33°
2026-04-26 13:43 28.36442 -15.21534 11332 ft 338 kts 33°
2026-04-26 13:43 28.38420 -15.20044 11897 ft 344 kts 33°
2026-04-26 13:43 28.40425 -15.18541 12535 ft 347 kts 33°
2026-04-26 13:43 28.42454 -15.17024 13167 ft 351 kts 33°
2026-04-26 13:44 28.44510 -15.15492 13789 ft 355 kts 33°
2026-04-26 13:44 28.46588 -15.13944 14348 ft 359 kts 33°
2026-04-26 13:44 28.48686 -15.12380 14904 ft 362 kts 33°
2026-04-26 13:44 28.50800 -15.10800 15451 ft 366 kts 33°
2026-04-26 13:45 28.52933 -15.09201 15982 ft 369 kts 33°
2026-04-26 13:45 28.55117 -15.07562 16535 ft 373 kts 33°
2026-04-26 13:45 28.56554 -15.06484 16886 ft 375 kts 33°
2026-04-26 13:45 28.58744 -15.04843 17435 ft 378 kts 33°
2026-04-26 13:46 28.60951 -15.03188 17985 ft 382 kts 33°
2026-04-26 13:46 28.63175 -15.01517 18501 ft 385 kts 33°
2026-04-26 13:46 28.65413 -14.99837 18977 ft 389 kts 33°
2026-04-26 13:46 28.67681 -14.98133 19459 ft 392 kts 33°
2026-04-26 13:47 28.69966 -14.96414 19946 ft 396 kts 33°
2026-04-26 13:47 28.72275 -14.94674 20430 ft 399 kts 33°
2026-04-26 13:47 28.74397 -14.93074 20846 ft 403 kts 33°
2026-04-26 13:47 28.76746 -14.91302 21331 ft 406 kts 33°
2026-04-26 13:48 28.79109 -14.89525 21814 ft 409 kts 33°
2026-04-26 13:48 28.81493 -14.87732 22291 ft 412 kts 33°
2026-04-26 13:48 28.83888 -14.85929 22759 ft 415 kts 33°
2026-04-26 13:48 28.86304 -14.84106 23239 ft 418 kts 33°
2026-04-26 13:49 28.88738 -14.82265 23664 ft 421 kts 33°
2026-04-26 13:49 28.91184 -14.80411 24043 ft 423 kts 33°
2026-04-26 13:49 28.93642 -14.78547 24425 ft 426 kts 33°
2026-04-26 13:49 28.96117 -14.76670 24801 ft 428 kts 33°
2026-04-26 13:50 28.98642 -14.74756 25176 ft 431 kts 33°
2026-04-26 13:50 29.01142 -14.72864 25532 ft 433 kts 33°
2026-04-26 13:50 29.03659 -14.70959 25891 ft 435 kts 33°
2026-04-26 13:50 29.06191 -14.69043 26249 ft 437 kts 33°
2026-04-26 13:51 29.08735 -14.67117 26587 ft 440 kts 33°
2026-04-26 13:51 29.11283 -14.65184 26932 ft 442 kts 33°
2026-04-26 13:51 29.13855 -14.63229 27263 ft 444 kts 33°
2026-04-26 13:51 29.16428 -14.61270 27592 ft 446 kts 33°
2026-04-26 13:52 29.19016 -14.59300 27918 ft 448 kts 33°
2026-04-26 13:52 29.21619 -14.57319 28244 ft 450 kts 33°
2026-04-26 13:52 29.24231 -14.55329 28567 ft 452 kts 33°
2026-04-26 13:52 29.26857 -14.53329 28884 ft 454 kts 33°
2026-04-26 13:53 29.29495 -14.51319 29197 ft 457 kts 33°
2026-04-26 13:53 29.32141 -14.49299 29512 ft 459 kts 33°
2026-04-26 13:53 29.34806 -14.47263 29841 ft 461 kts 33°
2026-04-26 13:53 29.37477 -14.45223 30130 ft 463 kts 33°
2026-04-26 13:54 29.40163 -14.43173 30385 ft 465 kts 33°
2026-04-26 13:54 29.42857 -14.41116 30645 ft 466 kts 33°
2026-04-26 13:54 29.45558 -14.39048 30993 ft 466 kts 33°
2026-04-26 13:55 29.50935 -14.34918 31682 ft 465 kts 33°
2026-04-26 13:55 29.52754 -14.33521 31912 ft 465 kts 33°
2026-04-26 13:55 29.59014 -14.28711 32676 ft 466 kts 32°
2026-04-26 13:56 29.61704 -14.26643 33024 ft 465 kts 32°
2026-04-26 13:56 29.64390 -14.24579 33364 ft 465 kts 32°
2026-04-26 13:56 29.67120 -14.22479 33714 ft 465 kts 32°
2026-04-26 13:56 29.69774 -14.20440 34041 ft 465 kts 32°
2026-04-26 13:57 29.72462 -14.18370 34312 ft 465 kts 32°
2026-04-26 13:57 29.75183 -14.16274 34566 ft 465 kts 32°
2026-04-26 13:57 29.77874 -14.14199 34813 ft 466 kts 32°
2026-04-26 13:57 29.80562 -14.12122 35035 ft 466 kts 32°
2026-04-26 13:58 29.83259 -14.10037 35265 ft 466 kts 32°
2026-04-26 13:58 29.85955 -14.07951 35498 ft 467 kts 32°
2026-04-26 13:58 29.88649 -14.05867 35718 ft 467 kts 32°
2026-04-26 13:58 29.91344 -14.03780 35928 ft 467 kts 32°
2026-04-26 13:59 29.94049 -14.01683 36014 ft 469 kts 32°
2026-04-26 13:59 29.99473 -13.97484 36028 ft 469 kts 32°
2026-04-26 14:00 30.10289 -13.89086 36031 ft 468 kts 32°
2026-04-26 14:01 30.15690 -13.84878 36031 ft 468 kts 32°
2026-04-26 14:01 30.21090 -13.80670 36034 ft 468 kts 32°
2026-04-26 14:02 30.26489 -13.76450 36032 ft 468 kts 32°
2026-04-26 14:02 30.31886 -13.72227 36039 ft 468 kts 32°
2026-04-26 14:03 30.37279 -13.68009 36047 ft 467 kts 32°
2026-04-26 14:03 30.42658 -13.63796 36042 ft 467 kts 32°
2026-04-26 14:04 30.48032 -13.59575 36038 ft 466 kts 32°
2026-04-26 14:04 30.53538 -13.55648 36035 ft 464 kts 26°
2026-04-26 14:05 30.59263 -13.52076 36034 ft 464 kts 26°
2026-04-26 14:05 30.64932 -13.48523 36033 ft 463 kts 26°
2026-04-26 14:06 30.70597 -13.44970 36036 ft 462 kts 26°
2026-04-26 14:06 30.76248 -13.41426 36033 ft 461 kts 27°
2026-04-26 14:07 30.81893 -13.37874 36033 ft 461 kts 27°
2026-04-26 14:07 30.87525 -13.34319 36035 ft 460 kts 27°
2026-04-26 14:08 30.93158 -13.30775 36032 ft 460 kts 27°
2026-04-26 14:08 30.98783 -13.27216 36030 ft 460 kts 27°
2026-04-26 14:09 31.04410 -13.23652 36026 ft 460 kts 27°
2026-04-26 14:09 31.10040 -13.20086 36021 ft 461 kts 27°
2026-04-26 14:10 31.15674 -13.16514 36018 ft 461 kts 27°
2026-04-26 14:10 31.21308 -13.12939 36023 ft 461 kts 27°
2026-04-26 14:11 31.29768 -13.07556 36024 ft 461 kts 27°
2026-04-26 14:11 31.35399 -13.03962 36019 ft 461 kts 27°
2026-04-26 14:12 31.41066 -13.00344 36018 ft 461 kts 27°
2026-04-26 14:12 31.46689 -12.96750 36020 ft 461 kts 27°
2026-04-26 14:13 31.55132 -12.91347 36020 ft 461 kts 27°
2026-04-26 14:14 31.60751 -12.87748 36019 ft 460 kts 27°
2026-04-26 14:14 31.66363 -12.84142 36018 ft 460 kts 27°
2026-04-26 14:15 31.71973 -12.80537 36021 ft 460 kts 27°
2026-04-26 14:15 31.77585 -12.76923 36019 ft 460 kts 27°
2026-04-26 14:16 31.83191 -12.73305 36016 ft 460 kts 27°
2026-04-26 14:16 31.88796 -12.69688 36018 ft 460 kts 27°
2026-04-26 14:17 31.94406 -12.66066 36011 ft 460 kts 27°
2026-04-26 14:17 32.00001 -12.62439 36018 ft 460 kts 28°
2026-04-26 14:18 32.05598 -12.58801 36017 ft 459 kts 28°
2026-04-26 14:18 32.11193 -12.55160 36017 ft 459 kts 28°
2026-04-26 14:19 32.15881 -12.52118 36013 ft 459 kts 28°
2026-04-26 14:19 32.21475 -12.48485 36015 ft 459 kts 28°
2026-04-26 14:20 32.27064 -12.44836 36018 ft 458 kts 28°
2026-04-26 14:20 32.32649 -12.41193 36017 ft 458 kts 28°
2026-04-26 14:21 32.38233 -12.37537 36018 ft 459 kts 28°
2026-04-26 14:21 32.43810 -12.33884 36016 ft 459 kts 28°
2026-04-26 14:22 32.49398 -12.30225 36019 ft 458 kts 28°
2026-04-26 14:22 32.54980 -12.26564 36016 ft 458 kts 28°
2026-04-26 14:23 32.60596 -12.22865 36019 ft 458 kts 29°
2026-04-26 14:23 32.66165 -12.19189 36017 ft 458 kts 29°
2026-04-26 14:24 32.71744 -12.15517 36017 ft 458 kts 29°
2026-04-26 14:24 32.77318 -12.11837 36018 ft 459 kts 29°
2026-04-26 14:25 32.82886 -12.08153 36020 ft 458 kts 29°
2026-04-26 14:25 32.88452 -12.04463 36017 ft 458 kts 29°
2026-04-26 14:26 32.94012 -12.00766 36020 ft 457 kts 29°
2026-04-26 14:26 32.99919 -11.97993 36014 ft 458 kts 15°
2026-04-26 14:27 33.06045 -11.95931 36017 ft 458 kts 16°
2026-04-26 14:27 33.12178 -11.93848 36019 ft 458 kts 16°
2026-04-26 14:28 33.18299 -11.91764 36023 ft 458 kts 16°
2026-04-26 14:28 33.24406 -11.89676 36020 ft 457 kts 16°
2026-04-26 14:29 33.30540 -11.87589 36020 ft 457 kts 16°
2026-04-26 14:29 33.36660 -11.85490 36024 ft 457 kts 16°
2026-04-26 14:30 33.42769 -11.83390 36027 ft 457 kts 16°
2026-04-26 14:30 33.48930 -11.81281 36027 ft 457 kts 16°
2026-04-26 14:31 33.55041 -11.79186 36030 ft 457 kts 17°
2026-04-26 14:31 33.61151 -11.77085 36029 ft 456 kts 17°
2026-04-26 14:32 33.67249 -11.74973 36033 ft 456 kts 17°
2026-04-26 14:32 33.73351 -11.72866 36036 ft 456 kts 17°
2026-04-26 14:33 33.79451 -11.70772 36036 ft 456 kts 17°
2026-04-26 14:33 33.85547 -11.68668 36040 ft 456 kts 17°
2026-04-26 14:34 33.91634 -11.66550 36037 ft 455 kts 17°
2026-04-26 14:34 33.97725 -11.64427 36041 ft 456 kts 17°
2026-04-26 14:35 34.03813 -11.62312 36041 ft 455 kts 17°
2026-04-26 14:35 34.09895 -11.60199 36048 ft 455 kts 17°
2026-04-26 14:36 34.15976 -11.58074 36050 ft 455 kts 17°
2026-04-26 14:36 34.22058 -11.55955 36049 ft 455 kts 17°
2026-04-26 14:37 34.28137 -11.53835 36058 ft 454 kts 17°
2026-04-26 14:37 34.34253 -11.51687 36055 ft 455 kts 17°
2026-04-26 14:38 34.40329 -11.49548 36061 ft 455 kts 17°
2026-04-26 14:38 34.46402 -11.47420 36060 ft 454 kts 17°
2026-04-26 14:39 34.52475 -11.45282 36054 ft 454 kts 17°
2026-04-26 14:39 34.58539 -11.43138 36061 ft 454 kts 17°
2026-04-26 14:40 34.64604 -11.41000 36061 ft 454 kts 17°
2026-04-26 14:40 34.70674 -11.38862 36061 ft 454 kts 17°
2026-04-26 14:41 34.76739 -11.36719 36061 ft 454 kts 17°
2026-04-26 14:41 34.82797 -11.34567 36058 ft 454 kts 17°
2026-04-26 14:42 34.88862 -11.32412 36060 ft 454 kts 17°
2026-04-26 14:42 34.94922 -11.30256 36056 ft 454 kts 17°
2026-04-26 14:43 35.01026 -11.28082 36062 ft 454 kts 17°
2026-04-26 14:43 35.07075 -11.25922 36058 ft 454 kts 17°
2026-04-26 14:44 35.13119 -11.23761 36060 ft 454 kts 17°
2026-04-26 14:44 35.19179 -11.21595 36061 ft 454 kts 17°
2026-04-26 14:45 35.25232 -11.19422 36065 ft 454 kts 17°
2026-04-26 14:45 35.31288 -11.17245 36069 ft 453 kts 16°
2026-04-26 14:46 35.37340 -11.15072 36070 ft 453 kts 16°
2026-04-26 14:46 35.43393 -11.12897 36070 ft 453 kts 16°
2026-04-26 14:47 35.49439 -11.10720 36073 ft 453 kts 16°
2026-04-26 14:47 35.55530 -11.08519 36071 ft 453 kts 16°
2026-04-26 14:48 35.61577 -11.06336 36077 ft 453 kts 16°
2026-04-26 14:48 35.67622 -11.04142 36080 ft 453 kts 16°
2026-04-26 14:49 35.73659 -11.01946 36085 ft 453 kts 16°
2026-04-26 14:49 35.79697 -10.99755 36084 ft 452 kts 16°
2026-04-26 14:50 35.84720 -10.97924 36087 ft 452 kts 16°
2026-04-26 14:50 35.90751 -10.95714 36083 ft 452 kts 16°
2026-04-26 14:51 35.96788 -10.93547 36085 ft 452 kts 12°
2026-04-26 14:51 36.02961 -10.92105 36081 ft 451 kts 10°
2026-04-26 14:52 36.09182 -10.90679 36083 ft 451 kts 10°
2026-04-26 14:52 36.15353 -10.89253 36085 ft 451 kts
2026-04-26 14:53 36.21522 -10.87831 36086 ft 451 kts 10°
2026-04-26 14:53 36.27686 -10.86411 36085 ft 451 kts
2026-04-26 14:54 36.33829 -10.84982 36089 ft 450 kts 10°
2026-04-26 14:54 36.39986 -10.83540 36088 ft 450 kts
2026-04-26 14:55 36.46145 -10.82111 36087 ft 450 kts
2026-04-26 14:55 36.52300 -10.80678 36097 ft 450 kts
2026-04-26 14:56 36.58229 -10.79294 36088 ft 450 kts
2026-04-26 14:56 36.64389 -10.77846 36098 ft 450 kts
2026-04-26 14:57 36.70531 -10.76397 36103 ft 450 kts
2026-04-26 14:57 36.76734 -10.74955 36104 ft 449 kts
2026-04-26 14:58 36.82755 -10.73540 36098 ft 449 kts
2026-04-26 14:58 36.88903 -10.72087 36101 ft 450 kts
2026-04-26 14:59 36.95056 -10.70637 36106 ft 449 kts
2026-04-26 14:59 37.01196 -10.69197 36097 ft 449 kts
2026-04-26 15:00 37.07338 -10.67746 36092 ft 449 kts
2026-04-26 15:00 37.13475 -10.66284 36097 ft 449 kts
2026-04-26 15:01 37.19620 -10.64819 36086 ft 449 kts
2026-04-26 15:01 37.25762 -10.63360 36098 ft 450 kts
2026-04-26 15:02 37.31910 -10.61903 36091 ft 450 kts
2026-04-26 15:02 37.38061 -10.60433 36099 ft 450 kts
2026-04-26 15:03 37.44227 -10.58961 36101 ft 450 kts
2026-04-26 15:03 37.50375 -10.57496 36095 ft 449 kts
2026-04-26 15:04 37.56517 -10.56012 36092 ft 449 kts
2026-04-26 15:04 37.62662 -10.54532 36091 ft 450 kts
2026-04-26 15:05 37.67016 -10.53421 36085 ft 448 kts 11°
2026-04-26 15:05 37.73143 -10.51886 36094 ft 449 kts
2026-04-26 15:06 37.79341 -10.50490 36105 ft 449 kts
2026-04-26 15:06 37.85487 -10.49065 36106 ft 449 kts
2026-04-26 15:07 37.94689 -10.46823 36108 ft 449 kts
2026-04-26 15:07 38.00818 -10.45324 36123 ft 448 kts
2026-04-26 15:08 38.06946 -10.43828 36124 ft 448 kts
2026-04-26 15:08 38.13105 -10.42330 36113 ft 448 kts
2026-04-26 15:09 38.19228 -10.40838 36117 ft 447 kts
2026-04-26 15:09 38.25338 -10.39349 36117 ft 447 kts
2026-04-26 15:10 38.30417 -10.38105 36116 ft 447 kts
2026-04-26 15:10 38.37550 -10.36357 36115 ft 446 kts
2026-04-26 15:11 38.43648 -10.34863 36117 ft 446 kts
2026-04-26 15:11 38.49746 -10.33356 36113 ft 446 kts
2026-04-26 15:12 38.55824 -10.31850 36106 ft 446 kts
2026-04-26 15:12 38.61919 -10.30346 36106 ft 445 kts
2026-04-26 15:13 38.68003 -10.28848 36112 ft 445 kts
2026-04-26 15:13 38.74086 -10.27345 36111 ft 445 kts
2026-04-26 15:14 38.80167 -10.25838 36113 ft 445 kts
2026-04-26 15:14 38.86285 -10.24313 36114 ft 445 kts
2026-04-26 15:15 38.92364 -10.22795 36127 ft 445 kts
2026-04-26 15:15 38.98439 -10.21278 36124 ft 445 kts
2026-04-26 15:16 39.04387 -10.19030 36113 ft 447 kts 16°
2026-04-26 15:16 39.10284 -10.16492 36117 ft 446 kts 16°
2026-04-26 15:17 39.15182 -10.14398 36112 ft 446 kts 16°
2026-04-26 15:17 39.22071 -10.11455 36113 ft 447 kts 16°
2026-04-26 15:18 39.27970 -10.08920 36122 ft 447 kts 16°
2026-04-26 15:18 39.33864 -10.06374 36121 ft 447 kts 16°
2026-04-26 15:19 39.39565 -10.03910 36130 ft 446 kts 16°
2026-04-26 15:19 39.45453 -10.01368 36129 ft 446 kts 16°
2026-04-26 15:20 39.51169 -9.98890 36126 ft 445 kts 16°
2026-04-26 15:20 39.57125 -9.96299 36127 ft 445 kts 16°
2026-04-26 15:21 39.62017 -9.94177 36133 ft 445 kts 16°
2026-04-26 15:21 39.67887 -9.91624 36131 ft 445 kts 16°
2026-04-26 15:22 39.73748 -9.89067 36129 ft 444 kts 16°
2026-04-26 15:22 39.79605 -9.86508 36125 ft 444 kts 16°
2026-04-26 15:23 39.85504 -9.83940 36121 ft 444 kts 16°
2026-04-26 15:23 39.91359 -9.81376 36125 ft 444 kts 17°
2026-04-26 15:24 39.97210 -9.78797 36120 ft 444 kts 17°
2026-04-26 15:24 40.03058 -9.76215 36117 ft 444 kts 17°
2026-04-26 15:25 40.07928 -9.74071 36121 ft 444 kts 17°
2026-04-26 15:25 40.14766 -9.71060 36122 ft 444 kts 17°
2026-04-26 15:26 40.20613 -9.68478 36123 ft 444 kts 17°
2026-04-26 15:26 40.26469 -9.65873 36119 ft 444 kts 17°
2026-04-26 15:27 40.32321 -9.63274 36121 ft 444 kts 17°
2026-04-26 15:27 40.38169 -9.60685 36122 ft 444 kts 17°
2026-04-26 15:28 40.44016 -9.58084 36125 ft 443 kts 17°
2026-04-26 15:28 40.49862 -9.55514 36127 ft 443 kts 17°
2026-04-26 15:29 40.55750 -9.52931 36123 ft 443 kts 17°
2026-04-26 15:30 40.67432 -9.47793 36125 ft 443 kts 17°
2026-04-26 15:30 40.73279 -9.45207 36128 ft 442 kts 17°
2026-04-26 15:31 40.81987 -9.41356 36128 ft 442 kts 17°
2026-04-26 15:32 40.89002 -9.38261 36124 ft 442 kts 17°
2026-04-26 15:32 40.95820 -9.35225 36124 ft 442 kts 17°
2026-04-26 15:33 41.01638 -9.32582 36126 ft 442 kts 18°
2026-04-26 15:33 41.07447 -9.29896 36125 ft 442 kts 18°
2026-04-26 15:34 41.13250 -9.27211 36123 ft 442 kts 18°
2026-04-26 15:34 41.19052 -9.24536 36124 ft 442 kts 18°
2026-04-26 15:35 41.24900 -9.21828 36124 ft 442 kts 18°
2026-04-26 15:35 41.30702 -9.19141 36122 ft 442 kts 18°
2026-04-26 15:36 41.36514 -9.16447 36121 ft 442 kts 18°
2026-04-26 15:36 41.42317 -9.13759 36121 ft 442 kts 18°
2026-04-26 15:37 41.48094 -9.11075 36123 ft 442 kts 18°
2026-04-26 15:37 41.53456 -9.08559 36120 ft 442 kts 18°
2026-04-26 15:38 41.59265 -9.05834 36120 ft 442 kts 18°
2026-04-26 15:38 41.65068 -9.03114 36119 ft 442 kts 18°
2026-04-26 15:39 41.70778 -9.00436 36120 ft 443 kts 18°
2026-04-26 15:39 41.75234 -8.98350 36119 ft 443 kts 18°
2026-04-26 15:40 41.82040 -8.95148 36120 ft 444 kts 18°
2026-04-26 15:40 41.87807 -8.92193 36115 ft 445 kts 26°
2026-04-26 15:41 41.93183 -8.87992 36117 ft 447 kts 29°
2026-04-26 15:41 41.98469 -8.83795 36119 ft 448 kts 29°
2026-04-26 15:42 42.03809 -8.79541 36121 ft 448 kts 29°
2026-04-26 15:42 42.09203 -8.75229 36124 ft 448 kts 29°
2026-04-26 15:43 42.14195 -8.71235 36125 ft 449 kts 29°
2026-04-26 15:44 42.22109 -8.64891 36126 ft 450 kts 30°
2026-04-26 15:44 42.30173 -8.58380 36125 ft 451 kts 29°
2026-04-26 15:45 42.37254 -8.52665 36126 ft 452 kts 29°
2026-04-26 15:46 42.43867 -8.47315 36130 ft 451 kts 30°
2026-04-26 15:46 42.47477 -8.44386 36123 ft 452 kts 30°
2026-04-26 15:47 42.51938 -8.40762 36122 ft 452 kts 30°
2026-04-26 15:48 42.57338 -8.36372 36130 ft 452 kts 29°
2026-04-26 15:48 42.62737 -8.31979 35896 ft 451 kts 30°
2026-04-26 15:48 42.65422 -8.29787 35649 ft 449 kts 30°
2026-04-26 15:49 42.68095 -8.27599 35402 ft 448 kts 30°
2026-04-26 15:49 42.70757 -8.25416 35157 ft 446 kts 30°
2026-04-26 15:49 42.73409 -8.23242 34907 ft 445 kts 30°
2026-04-26 15:49 42.76058 -8.21074 34680 ft 443 kts 30°
2026-04-26 15:50 42.78296 -8.19245 34475 ft 442 kts 30°
2026-04-26 15:50 42.80939 -8.17085 34228 ft 440 kts 30°
2026-04-26 15:50 42.83556 -8.14935 33975 ft 438 kts 30°
2026-04-26 15:50 42.86148 -8.12795 33590 ft 433 kts 30°
2026-04-26 15:51 42.88714 -8.10671 33101 ft 430 kts 30°
2026-04-26 15:51 42.91263 -8.08562 32622 ft 427 kts 30°
2026-04-26 15:51 42.92978 -8.07143 32306 ft 426 kts 30°
2026-04-26 15:51 42.95504 -8.05057 31837 ft 423 kts 30°
2026-04-26 15:52 42.98014 -8.02984 31376 ft 421 kts 30°
2026-04-26 15:52 43.00515 -8.00919 30917 ft 419 kts 30°
2026-04-26 15:52 43.03005 -7.98863 30475 ft 417 kts 30°
2026-04-26 15:52 43.04649 -7.97504 30174 ft 416 kts 30°
2026-04-26 15:53 43.07954 -7.94770 29564 ft 413 kts 30°
2026-04-26 15:53 43.10394 -7.92740 29142 ft 410 kts 30°
2026-04-26 15:53 43.12825 -7.90714 28736 ft 407 kts 30°
2026-04-26 15:53 43.15236 -7.88701 28327 ft 405 kts 30°
2026-04-26 15:54 43.17635 -7.86700 27913 ft 403 kts 30°
2026-04-26 15:54 43.20026 -7.84706 27506 ft 401 kts 30°
2026-04-26 15:54 43.22406 -7.82722 27094 ft 399 kts 30°
2026-04-26 15:54 43.24750 -7.80763 26672 ft 398 kts 30°
2026-04-26 15:55 43.27108 -7.78787 26247 ft 396 kts 30°
2026-04-26 15:55 43.29461 -7.76816 25813 ft 395 kts 30°
2026-04-26 15:55 43.31809 -7.74855 25379 ft 394 kts 30°
2026-04-26 15:55 43.34148 -7.72900 24930 ft 394 kts 30°
2026-04-26 15:56 43.36515 -7.70921 24471 ft 393 kts 30°
2026-04-26 15:56 43.38848 -7.68966 24016 ft 393 kts 30°
2026-04-26 15:56 43.41177 -7.67005 23531 ft 392 kts 30°
2026-04-26 15:56 43.43469 -7.65072 23059 ft 390 kts 30°
2026-04-26 15:57 43.45909 -7.63405 22601 ft 383 kts 13°
2026-04-26 15:57 43.48509 -7.63081 22150 ft 372 kts 349°
2026-04-26 15:57 43.50910 -7.64156 21766 ft 358 kts 326°
2026-04-26 15:57 43.52214 -7.65487 21551 ft 349 kts 312°
2026-04-26 15:58 43.53909 -7.69133 21115 ft 333 kts 285°
2026-04-26 15:58 43.54259 -7.72223 20793 ft 324 kts 266°
2026-04-26 15:58 43.53839 -7.75217 20485 ft 316 kts 247°
2026-04-26 15:58 43.52743 -7.77795 20170 ft 311 kts 230°
2026-04-26 15:59 43.51120 -7.79719 19869 ft 308 kts 212°
2026-04-26 15:59 43.49145 -7.80821 19560 ft 307 kts 194°
2026-04-26 15:59 43.47018 -7.81009 19258 ft 308 kts 179°
2026-04-26 15:59 43.44890 -7.80837 18954 ft 305 kts 179°
2026-04-26 16:00 43.42779 -7.80672 18650 ft 303 kts 180°
2026-04-26 16:00 43.40683 -7.80513 18338 ft 300 kts 181°
2026-04-26 16:00 43.38617 -7.80669 18025 ft 296 kts 192°
2026-04-26 16:00 43.36642 -7.81367 17733 ft 292 kts 203°
2026-04-26 16:01 43.34821 -7.82567 17437 ft 289 kts 214°
2026-04-26 16:01 43.33210 -7.84192 17146 ft 286 kts 224°
2026-04-26 16:01 43.32125 -7.85696 16930 ft 285 kts 229°
2026-04-26 16:01 43.30777 -7.87690 16640 ft 284 kts 228°
2026-04-26 16:02 43.29423 -7.89655 16367 ft 283 kts 227°
2026-04-26 16:02 43.28051 -7.91628 16082 ft 282 kts 227°
2026-04-26 16:02 43.26699 -7.93575 15805 ft 281 kts 227°
2026-04-26 16:02 43.25807 -7.94861 15623 ft 280 kts 227°
2026-04-26 16:03 43.24018 -7.97449 15254 ft 279 kts 228°
2026-04-26 16:03 43.22687 -7.99379 14980 ft 278 kts 227°
2026-04-26 16:03 43.21361 -8.01299 14706 ft 277 kts 227°
2026-04-26 16:03 43.20037 -8.03209 14437 ft 277 kts 227°
2026-04-26 16:04 43.18711 -8.05121 14155 ft 276 kts 228°
2026-04-26 16:04 43.17399 -8.07014 13866 ft 275 kts 227°
2026-04-26 16:04 43.16081 -8.08916 13563 ft 273 kts 228°
2026-04-26 16:04 43.14775 -8.10801 13250 ft 273 kts 227°
2026-04-26 16:05 43.13473 -8.12682 12905 ft 272 kts 227°
2026-04-26 16:05 43.12173 -8.14562 12564 ft 271 kts 227°
2026-04-26 16:05 43.10875 -8.16437 12221 ft 271 kts 227°
2026-04-26 16:05 43.09580 -8.18304 11889 ft 270 kts 227°
2026-04-26 16:06 43.08291 -8.20164 11552 ft 269 kts 227°
2026-04-26 16:06 43.07005 -8.22014 11220 ft 269 kts 227°
2026-04-26 16:06 43.05716 -8.23870 10870 ft 270 kts 226°
2026-04-26 16:06 43.04420 -8.25735 10544 ft 270 kts 226°
2026-04-26 16:07 43.03123 -8.27598 10208 ft 271 kts 226°
2026-04-26 16:07 43.01824 -8.29463 9847 ft 271 kts 226°
2026-04-26 16:07 43.00528 -8.31322 9496 ft 269 kts 226°
2026-04-26 16:07 42.99237 -8.33171 9153 ft 268 kts 226°
2026-04-26 16:08 42.97951 -8.35009 8811 ft 268 kts 226°
2026-04-26 16:08 42.97083 -8.36246 8588 ft 267 kts 226°
2026-04-26 16:08 42.95382 -8.38672 8135 ft 267 kts 227°
2026-04-26 16:08 42.94019 -8.40346 7799 ft 267 kts 213°
2026-04-26 16:09 42.92336 -8.41397 7455 ft 268 kts 195°
2026-04-26 16:09 42.90484 -8.41666 7115 ft 270 kts 177°
2026-04-26 16:09 42.88637 -8.41187 6762 ft 271 kts 167°
2026-04-26 16:09 42.86804 -8.40565 6406 ft 272 kts 167°
2026-04-26 16:10 42.84968 -8.39948 6044 ft 271 kts 167°
2026-04-26 16:10 42.83121 -8.39330 5602 ft 277 kts 167°
2026-04-26 16:10 42.81245 -8.38704 5207 ft 277 kts 167°
2026-04-26 16:10 42.79371 -8.38079 5077 ft 269 kts 167°
2026-04-26 16:11 42.77629 -8.37497 4971 ft 260 kts 167°
2026-04-26 16:11 42.75861 -8.36907 4857 ft 250 kts 167°
2026-04-26 16:11 42.74205 -8.36355 4743 ft 240 kts 167°
2026-04-26 16:11 42.72611 -8.35823 4635 ft 231 kts 167°
2026-04-26 16:12 42.71118 -8.35219 4549 ft 222 kts 151°
2026-04-26 16:12 42.70059 -8.33739 4369 ft 222 kts 111°
2026-04-26 16:12 42.70674 -8.29979 4084 ft 214 kts 35°
2026-04-26 16:13 42.72026 -8.29253 3954 ft 213 kts
2026-04-26 16:13 42.73408 -8.29756 3817 ft 208 kts 322°
2026-04-26 16:13 42.74449 -8.31139 3669 ft 210 kts 316°
2026-04-26 16:13 42.75499 -8.32517 3556 ft 210 kts 318°
2026-04-26 16:14 42.76526 -8.33855 3415 ft 200 kts 317°
2026-04-26 16:14 42.77513 -8.35140 3289 ft 191 kts 318°
2026-04-26 16:14 42.79309 -8.37406 3071 ft 168 kts 328°
2026-04-26 16:15 42.80314 -8.38138 2892 ft 153 kts 339°
2026-04-26 16:15 42.81256 -8.38594 2744 ft 136 kts 345°
2026-04-26 16:15 42.82160 -8.38954 2555 ft 135 kts 347°
2026-04-26 16:16 42.83988 -8.39609 2181 ft 137 kts 345°
2026-04-26 16:16 42.84898 -8.39921 2007 ft 134 kts 347°
2026-04-26 16:16 42.85809 -8.40229 1798 ft 133 kts 347°
2026-04-26 16:16 42.86715 -8.40545 1613 ft 135 kts 346°
2026-04-26 16:17 42.87622 -8.40851 1453 ft 134 kts 347°
2026-04-26 16:17 42.88527 -8.41148 1260 ft 133 kts 347°
2026-04-26 16:17 42.89283 -8.41398 1200 ft 87 kts 346°
2026-04-26 16:17 42.89684 -8.41527 1194 ft 42 kts 346°
2026-04-26 16:18 42.89784 -8.41601 1191 ft 4 kts 262°
2026-04-26 16:18 42.89763 -8.41764 1193 ft 12 kts 298°
2026-04-26 16:19 42.89792 -8.41919 1193 ft 0 kts 255°